Regional Weather Roundup
Issued by NWS

Home | Current Version | Previous Version | Graphics & Text | Print | Product List | Glossary On
Versions: 1 2 3 4 5 6 7 8 9 10 11 12 13 14 15 16 17 18 19 20 21 22 23 24 25 26 27 28 29 30 31 32 33 34 35 36 37 38 39 40 41 42 43 44 45 46 47 48 49 50
145
ASUS43 KIND 230309
RWRIN

WEATHER ROUNDUP FOR INDIANA
NATIONAL WEATHER SERVICE INDIANAPOLIS IN
1000 PM EST SUN JAN 22 2017

NOTE: "FAIR" INDICATES FEW OR NO CLOUDS BELOW 12,000 FEET WITH NO
SIGNIFICANT WEATHER AND/OR OBSTRUCTIONS TO VISIBILITY.

* - STATION DOES NOT REPORT WEATHER SUCH AS PRECIPITATION OR FOG.

+ - STATION NOT QUALITY CONTROLLED BY THE NATIONAL WEATHER SERVICE.
    USE DATA WITH CAUTION...ESPECIALLY DEWPOINT AND RELATIVE
    HUMIDITY OBSERVATIONS.

INZ001>003-010>013-019-020-230400-
NORTHWEST INDIANA

CITY           SKY/WX    TMP DP  RH WIND       PRES   REMARKS
GARY /AIRPORT/ MOCLDY    39  39 100 N14       29.67R
KNOX *+        CLOUDY    41  36  81 NE9       29.63S VSB 3/4
LA PORTE +     FOG       40  40 100 N7        29.65S VSB 1/4
MICHIGAN CITY+ FOG       37  37 100 N6        29.66S VSB 3/4
MONTICELLO +   CLOUDY    43  42  95 N9        29.61R FOG
RENSSELAER +   CLOUDY    41  41 100 N10       29.63S FOG
VALPARAISO     FOG       41  41 100 N9        29.64S VSB 3/4

$$

LMZ046-743>745-230400-
SOUTHERN LAKE MICHIGAN

STATION/POSITION TIME  TEMP    WIND        PRES    WAVE
                       AIR SEA DIR/SP/G            HT
                 (UTC) (F)     (DEG/KT/KT) (MB)    (FT)
BURNS HARBOR     0300   35      30/  7/ 10 1005.4
MICHIGAN CITY    0240   37      20/  8/ 10   N/A

$$

INZ004-005-014>016-021>024-230400-
NORTH CENTRAL INDIANA

CITY           SKY/WX    TMP DP  RH WIND       PRES   REMARKS
GOSHEN         FOG       43  41  93 N6        29.63R VSB 1/2
LOGANSPORT +   FOG       43  43 100 N10       29.61R VSB 1/2
PERU/GRISSOM   CLOUDY    47  47 100 N8        29.58R FOG
ROCHESTER +    FOG       45 N/A N/A N6        29.62S VSB 3/4
SOUTH BEND     FOG       40  40 100 N6        29.65R VSB 1/2
WARSAW +       FOG       43  43 100 N6        29.61F VSB 1/2

$$

INZ006>009-017-018-025>027-230400-
NORTHEAST INDIANA

CITY           SKY/WX    TMP DP  RH WIND       PRES   REMARKS
ANGOLA *+      CLOUDY    45  30  57 NE5       29.62R
AUBURN +       CLOUDY    46  45  93 NE7       29.62R FOG
FORT WAYNE     CLOUDY    50  46  86 NE15      29.59F FOG
HUNTINGTON +   CLOUDY    49  48  96 NE7       29.59S
KENDALLVILLE + CLOUDY    47  47 100 E7        29.61S FOG

$$

INZ028-029-035-036-043>045-051>053-230400-
WEST CENTRAL INDIANA

CITY           SKY/WX    TMP DP  RH WIND       PRES   REMARKS
CRAWFORDSVL +  CLOUDY    44  44 100 N9        29.59S FOG
GREENCASTLE +  CLOUDY    50  46  87 N13       29.54F
LAFAYETTE      CLOUDY    43  43 100 N8        29.60R FOG
TERRE HAUTE    CLOUDY    50  46  86 N13       29.56S

$$

INZ030>032-037>040-046>048-054>057-064-065-230400-
CENTRAL INDIANA

CITY           SKY/WX    TMP DP  RH WIND       PRES   REMARKS
CP ATTERBURY + CLOUDY    54  50  87 N10       29.50S
COLUMBUS       PTCLDY    54  54 100 N13       29.48S
FISHERS *+     PTCLDY    50  50 100 N6        29.54F
FRANKFORT +    CLOUDY    49  48  95 NE10G16   29.60S FOG
GREENWOOD *+   CLOUDY    55  52  90 N12       29.52S
INDIANAPOLIS   MOCLDY    53  49  86 N16       29.52F
-EAGLE CREEK   PTCLDY    53  48  83 N12       29.53F
KOKOMO +       CLOUDY    48  47  96 N10       29.59S
MARION +       CLOUDY    50  46  87 NE13      29.57F
MT COMFORT *+  PTCLDY    50  48  93 N13       29.52F
SHELBYVILLE    CLOUDY    55  50  83 N13       29.49S
ZIONSVILLE +   MOCLDY    48  46  93 N13       29.56F

$$

INZ033-034-041-042-049-050-058-059-230400-
EAST CENTRAL INDIANA

CITY           SKY/WX    TMP DP  RH WIND       PRES   REMARKS
MUNCIE         PTCLDY    52  48  86 NE10      29.55R

$$

INZ060-061-067>069-081>083-085>088-230400-
SOUTHWEST INDIANA

CITY           SKY/WX    TMP DP  RH WIND       PRES   REMARKS
EVANSVILLE     PTCLDY    57  50  77 N14G23    29.45S
HUNTINGBURG *+ PTCLDY    56  50  80 N10       29.43S
WASHINGTON +   CLOUDY    54  50  87 N16       29.47F

$$

INZ062-063-066-070>080-084-089>092-230400-
SOUTH CENTRAL AND SOUTHEAST INDIANA

CITY           SKY/WX    TMP DP  RH WIND       PRES   REMARKS
BLOOMINGTON    CLOUDY    54  49  83 N14       29.49S
MADISON *+     CLOUDY    57  46  67 NE10G17   29.44S
NORTH VERNON + LGT RAIN  57  50  77 NE10      29.46S
SEYMOUR +      CLOUDY    57  50  77 N14       29.45S

$$





USA.gov is the U.S. government's official web portal to all federal, state and local government web resources and services.